Year,Month,Day,Hour,Minute,Value (Times are PST for insolation in W/m^2)
2012,11,04,00,00,0.00
2012,11,04,00,01,0.00
2012,11,04,00,02,0.00
2012,11,04,00,03,0.00
2012,11,04,00,04,0.00
2012,11,04,00,05,0.00
2012,11,04,00,06,0.00
2012,11,04,00,07,0.00
2012,11,04,00,08,0.00
2012,11,04,00,09,0.00
2012,11,04,00,10,0.00
2012,11,04,00,11,0.00
2012,11,04,00,12,0.00
2012,11,04,00,13,0.00
2012,11,04,00,14,0.00
2012,11,04,00,15,0.00
2012,11,04,00,16,0.00
2012,11,04,00,17,0.00
2012,11,04,00,18,0.00
2012,11,04,00,19,0.00
2012,11,04,00,20,0.00
2012,11,04,00,21,0.00
2012,11,04,00,22,0.00
2012,11,04,00,23,0.00
2012,11,04,00,24,0.00
2012,11,04,00,25,0.00
2012,11,04,00,26,0.00
2012,11,04,00,27,0.00
2012,11,04,00,28,0.00
2012,11,04,00,29,0.00
2012,11,04,00,30,0.00
2012,11,04,00,31,0.00
2012,11,04,00,32,0.00
2012,11,04,00,33,0.00
2012,11,04,00,34,0.00
2012,11,04,00,35,0.00
2012,11,04,00,36,0.00
2012,11,04,00,37,0.00
2012,11,04,00,38,0.00
2012,11,04,00,39,0.00
2012,11,04,00,40,0.00
2012,11,04,00,41,0.00
2012,11,04,00,42,0.00
2012,11,04,00,43,0.00
2012,11,04,00,44,0.00
2012,11,04,00,45,0.00
2012,11,04,00,46,0.00
2012,11,04,00,47,0.00
2012,11,04,00,48,0.00
2012,11,04,00,49,0.00
2012,11,04,00,50,0.00
2012,11,04,00,51,0.00
2012,11,04,00,52,0.00
2012,11,04,00,53,0.00
2012,11,04,00,54,0.00
2012,11,04,00,55,0.00
2012,11,04,00,56,0.00
2012,11,04,00,57,0.00
2012,11,04,00,58,0.00
2012,11,04,00,59,0.00
2012,11,04,01,00,0.00
2012,11,04,01,01,0.00
2012,11,04,01,02,0.00
2012,11,04,01,03,0.00
2012,11,04,01,04,0.00
2012,11,04,01,05,0.00
2012,11,04,01,06,0.00
2012,11,04,01,07,0.00
2012,11,04,01,08,0.00
2012,11,04,01,09,0.00
2012,11,04,01,10,0.00
2012,11,04,01,11,0.00
2012,11,04,01,12,0.00
2012,11,04,01,13,0.00
2012,11,04,01,14,0.00
2012,11,04,01,15,0.00
2012,11,04,01,16,0.00
2012,11,04,01,17,0.00
2012,11,04,01,18,0.00
2012,11,04,01,19,0.00
2012,11,04,01,20,0.00
2012,11,04,01,21,0.00
2012,11,04,01,22,0.00
2012,11,04,01,23,0.00
2012,11,04,01,24,0.00
2012,11,04,01,25,0.00
2012,11,04,01,26,0.00
2012,11,04,01,27,0.00
2012,11,04,01,28,0.00
2012,11,04,01,29,0.00
2012,11,04,01,30,0.00
2012,11,04,01,31,0.00
2012,11,04,01,32,0.00
2012,11,04,01,33,0.00
2012,11,04,01,34,0.00
2012,11,04,01,35,0.00
2012,11,04,01,36,0.00
2012,11,04,01,37,0.00
2012,11,04,01,38,0.00
2012,11,04,01,39,0.00
2012,11,04,01,40,0.00
2012,11,04,01,41,0.00
2012,11,04,01,42,0.00
2012,11,04,01,43,0.00
2012,11,04,01,44,0.00
2012,11,04,01,45,0.00
2012,11,04,01,46,0.00
2012,11,04,01,47,0.00
2012,11,04,01,48,0.00
2012,11,04,01,49,0.00
2012,11,04,01,50,0.00
2012,11,04,01,51,0.00
2012,11,04,01,52,0.00
2012,11,04,01,53,0.00
2012,11,04,01,54,0.00
2012,11,04,01,55,0.00
2012,11,04,01,56,0.00
2012,11,04,01,57,0.00
2012,11,04,01,58,0.00
2012,11,04,01,59,0.00
2012,11,04,02,06,0.00
2012,11,04,02,07,0.00
2012,11,04,02,08,0.00
2012,11,04,02,09,0.00
2012,11,04,02,10,0.00
2012,11,04,02,11,0.00
2012,11,04,02,12,0.00
2012,11,04,02,13,0.00
2012,11,04,02,14,0.00
2012,11,04,02,15,0.00
2012,11,04,02,16,0.00
2012,11,04,02,17,0.00
2012,11,04,02,18,0.00
2012,11,04,02,19,0.00
2012,11,04,02,20,0.00
2012,11,04,02,21,0.00
2012,11,04,02,22,0.00
2012,11,04,02,23,0.00
2012,11,04,02,24,0.00
2012,11,04,02,25,0.00
2012,11,04,02,26,0.00
2012,11,04,02,27,0.00
2012,11,04,02,28,0.00
2012,11,04,02,29,0.00
2012,11,04,02,30,0.00
2012,11,04,02,31,0.00
2012,11,04,02,32,0.00
2012,11,04,02,33,0.00
2012,11,04,02,34,0.00
2012,11,04,02,35,0.00
2012,11,04,02,36,0.00
2012,11,04,02,37,0.00
2012,11,04,02,38,0.00
2012,11,04,02,39,0.00
2012,11,04,02,40,0.00
2012,11,04,02,41,0.00
2012,11,04,02,42,0.00
2012,11,04,02,43,0.00
2012,11,04,02,44,0.00
2012,11,04,02,45,0.00
2012,11,04,02,46,0.00
2012,11,04,02,47,0.00
2012,11,04,02,48,0.00
2012,11,04,02,49,0.00
2012,11,04,02,50,0.00
2012,11,04,02,51,0.00
2012,11,04,02,52,0.00
2012,11,04,02,53,0.00
2012,11,04,02,54,0.00
2012,11,04,02,55,0.00
2012,11,04,02,56,0.00
2012,11,04,02,57,0.00
2012,11,04,02,58,0.00
2012,11,04,02,59,0.00
2012,11,04,03,00,0.00
2012,11,04,03,01,0.00
2012,11,04,03,02,0.00
2012,11,04,03,03,0.00
2012,11,04,03,06,0.00
2012,11,04,03,07,0.00
2012,11,04,03,08,0.00
2012,11,04,03,09,0.00
2012,11,04,03,10,0.00
2012,11,04,03,11,0.00
2012,11,04,03,12,0.00
2012,11,04,03,13,0.00
2012,11,04,03,14,0.00
2012,11,04,03,15,0.00
2012,11,04,03,16,0.00
2012,11,04,03,17,0.00
2012,11,04,03,18,0.00
2012,11,04,03,19,0.00
2012,11,04,03,20,0.00
2012,11,04,03,21,0.00
2012,11,04,03,22,0.00
2012,11,04,03,23,0.00
2012,11,04,03,24,0.00
2012,11,04,03,25,0.00
2012,11,04,03,26,0.00
2012,11,04,03,27,0.00
2012,11,04,03,28,0.00
2012,11,04,03,29,0.00
2012,11,04,03,30,0.00
2012,11,04,03,31,0.00
2012,11,04,03,32,0.00
2012,11,04,03,33,0.00
2012,11,04,03,34,0.00
2012,11,04,03,35,0.00
2012,11,04,03,36,0.00
2012,11,04,03,37,0.00
2012,11,04,03,38,0.00
2012,11,04,03,39,0.00
2012,11,04,03,40,0.00
2012,11,04,03,41,0.00
2012,11,04,03,42,0.00
2012,11,04,03,43,0.00
2012,11,04,03,44,0.00
2012,11,04,03,45,0.00
2012,11,04,03,46,0.00
2012,11,04,03,47,0.00
2012,11,04,03,48,0.00
2012,11,04,03,49,0.00
2012,11,04,03,50,0.00
2012,11,04,03,51,0.00
2012,11,04,03,52,0.00
2012,11,04,03,53,0.00
2012,11,04,03,54,0.00
2012,11,04,03,55,0.00
2012,11,04,03,56,0.00
2012,11,04,03,57,0.00
2012,11,04,03,58,0.00
2012,11,04,03,59,0.00
2012,11,04,04,00,0.00
2012,11,04,04,01,0.00
2012,11,04,04,02,0.00
2012,11,04,04,03,0.00
2012,11,04,04,04,0.00
2012,11,04,04,05,0.00
2012,11,04,04,06,0.00
2012,11,04,04,07,0.00
2012,11,04,04,08,0.00
2012,11,04,04,09,0.00
2012,11,04,04,10,0.00
2012,11,04,04,11,0.00
2012,11,04,04,12,0.00
2012,11,04,04,13,0.00
2012,11,04,04,14,0.00
2012,11,04,04,15,0.00
2012,11,04,04,16,0.00
2012,11,04,04,17,0.00
2012,11,04,04,18,0.00
2012,11,04,04,19,0.00
2012,11,04,04,20,0.00
2012,11,04,04,21,0.00
2012,11,04,04,22,0.00
2012,11,04,04,23,0.00
2012,11,04,04,24,0.00
2012,11,04,04,25,0.00
2012,11,04,04,26,0.00
2012,11,04,04,27,0.00
2012,11,04,04,28,0.00
2012,11,04,04,29,0.00
2012,11,04,04,30,0.00
2012,11,04,04,31,0.00
2012,11,04,04,32,0.00
2012,11,04,04,33,0.00
2012,11,04,04,34,0.00
2012,11,04,04,35,0.00
2012,11,04,04,36,0.00
2012,11,04,04,37,0.00
2012,11,04,04,38,0.00
2012,11,04,04,39,0.00
2012,11,04,04,40,0.00
2012,11,04,04,41,0.00
2012,11,04,04,42,0.00
2012,11,04,04,43,0.00
2012,11,04,04,44,0.00
2012,11,04,04,45,0.00
2012,11,04,04,46,0.00
2012,11,04,04,47,0.00
2012,11,04,04,48,0.00
2012,11,04,04,49,0.00
2012,11,04,04,50,0.00
2012,11,04,04,51,0.00
2012,11,04,04,52,0.00
2012,11,04,04,53,0.00
2012,11,04,04,54,0.00
2012,11,04,04,55,0.00
2012,11,04,04,56,0.00
2012,11,04,04,57,0.00
2012,11,04,04,58,0.00
2012,11,04,04,59,0.00
2012,11,04,05,00,0.00
2012,11,04,05,01,0.00
2012,11,04,05,02,0.00
2012,11,04,05,03,0.00
2012,11,04,05,04,0.00
2012,11,04,05,05,0.00
2012,11,04,05,06,0.00
2012,11,04,05,07,0.00
2012,11,04,05,08,0.00
2012,11,04,05,09,0.00
2012,11,04,05,10,0.00
2012,11,04,05,11,0.00
2012,11,04,05,12,0.00
2012,11,04,05,13,0.00
2012,11,04,05,14,0.00
2012,11,04,05,15,0.00
2012,11,04,05,16,0.00
2012,11,04,05,17,0.00
2012,11,04,05,18,0.00
2012,11,04,05,19,0.00
2012,11,04,05,20,0.00
2012,11,04,05,21,0.00
2012,11,04,05,22,0.00
2012,11,04,05,23,0.00
2012,11,04,05,24,0.00
2012,11,04,05,25,0.00
2012,11,04,05,26,0.00
2012,11,04,05,27,0.00
2012,11,04,05,28,0.00
2012,11,04,05,29,0.00
2012,11,04,05,30,0.00
2012,11,04,05,31,0.00
2012,11,04,05,32,0.00
2012,11,04,05,33,0.00
2012,11,04,05,34,0.00
2012,11,04,05,35,0.00
2012,11,04,05,36,0.00
2012,11,04,05,37,0.00
2012,11,04,05,38,0.00
2012,11,04,05,39,0.00
2012,11,04,05,40,0.00
2012,11,04,05,41,0.00
2012,11,04,05,42,0.00
2012,11,04,05,43,0.00
2012,11,04,05,44,0.00
2012,11,04,05,45,0.00
2012,11,04,05,46,0.00
2012,11,04,05,47,0.00
2012,11,04,05,48,0.00
2012,11,04,05,49,0.00
2012,11,04,05,50,0.00
2012,11,04,05,51,0.00
2012,11,04,05,52,0.00
2012,11,04,05,53,0.00
2012,11,04,05,54,0.00
2012,11,04,05,55,0.00
2012,11,04,05,56,0.00
2012,11,04,05,57,0.00
2012,11,04,05,58,0.00
2012,11,04,05,59,0.00
2012,11,04,06,00,0.00
2012,11,04,06,01,0.00
2012,11,04,06,02,0.00
2012,11,04,06,03,0.00
2012,11,04,06,04,0.00
2012,11,04,06,05,0.00
2012,11,04,06,06,0.00
2012,11,04,06,07,0.00
2012,11,04,06,08,0.00
2012,11,04,06,09,0.00
2012,11,04,06,10,0.00
2012,11,04,06,11,0.00
2012,11,04,06,12,0.00
2012,11,04,06,13,0.00
2012,11,04,06,14,0.00
2012,11,04,06,15,0.00
2012,11,04,06,16,0.00
2012,11,04,06,17,0.00
2012,11,04,06,18,0.00
2012,11,04,06,19,0.00
2012,11,04,06,20,0.00
2012,11,04,06,21,0.00
2012,11,04,06,22,0.00
2012,11,04,06,23,0.00
2012,11,04,06,24,0.00
2012,11,04,06,25,0.00
2012,11,04,06,26,0.00
2012,11,04,06,27,0.00
2012,11,04,06,28,0.00
2012,11,04,06,29,0.00
2012,11,04,06,30,0.00
2012,11,04,06,31,0.00
2012,11,04,06,32,0.00
2012,11,04,06,33,0.00
2012,11,04,06,34,0.00
2012,11,04,06,35,0.00
2012,11,04,06,36,0.00
2012,11,04,06,37,0.00
2012,11,04,06,38,0.00
2012,11,04,06,39,0.00
2012,11,04,06,40,0.00
2012,11,04,06,41,0.00
2012,11,04,06,42,0.00
2012,11,04,06,43,0.00
2012,11,04,06,44,0.00
2012,11,04,06,45,0.00
2012,11,04,06,46,0.00
2012,11,04,06,47,0.00
2012,11,04,06,48,0.00
2012,11,04,06,49,0.00
2012,11,04,06,50,0.00
2012,11,04,06,51,0.00
2012,11,04,06,52,0.00
2012,11,04,06,53,0.00
2012,11,04,06,54,0.00
2012,11,04,06,55,0.00
2012,11,04,06,56,0.00
2012,11,04,06,57,0.00
2012,11,04,06,58,0.00
2012,11,04,06,59,0.00
2012,11,04,07,00,0.00
2012,11,04,07,01,0.00
2012,11,04,07,02,0.00
2012,11,04,07,03,0.00
2012,11,04,07,04,0.00
2012,11,04,07,05,0.00
2012,11,04,07,06,0.00
2012,11,04,07,07,0.00
2012,11,04,07,08,0.00
2012,11,04,07,09,0.00
2012,11,04,07,10,0.00
2012,11,04,07,11,0.00
2012,11,04,07,12,0.00
2012,11,04,07,13,0.00
2012,11,04,07,14,0.00
2012,11,04,07,15,0.00
2012,11,04,07,16,0.00
2012,11,04,07,17,0.00
2012,11,04,07,18,0.00
2012,11,04,07,19,0.00
2012,11,04,07,20,0.00
2012,11,04,07,21,0.00
2012,11,04,07,22,0.00
2012,11,04,07,23,0.00
2012,11,04,07,24,0.00
2012,11,04,07,25,0.00
2012,11,04,07,26,0.00
2012,11,04,07,27,0.00
2012,11,04,07,28,0.00
2012,11,04,07,29,0.00
2012,11,04,07,30,3.40
2012,11,04,07,31,5.00
2012,11,04,07,32,5.00
2012,11,04,07,33,5.00
2012,11,04,07,34,5.00
2012,11,04,07,35,5.00
2012,11,04,07,36,5.00
2012,11,04,07,37,5.00
2012,11,04,07,38,5.00
2012,11,04,07,39,5.00
2012,11,04,07,40,6.70
2012,11,04,07,41,7.00
2012,11,04,07,42,7.00
2012,11,04,07,43,7.00
2012,11,04,07,44,7.00
2012,11,04,07,45,7.00
2012,11,04,07,46,7.00
2012,11,04,07,47,7.00
2012,11,04,07,48,7.00
2012,11,04,07,49,7.00
2012,11,04,07,50,7.00
2012,11,04,07,51,7.00
2012,11,04,07,52,7.00
2012,11,04,07,53,7.00
2012,11,04,07,54,8.00
2012,11,04,07,55,9.00
2012,11,04,07,56,9.00
2012,11,04,07,57,9.00
2012,11,04,07,58,9.10
2012,11,04,07,59,11.00
2012,11,04,08,00,11.00
2012,11,04,08,01,11.00
2012,11,04,08,02,11.50
2012,11,04,08,03,12.00
2012,11,04,08,04,12.00
2012,11,04,08,05,13.50
2012,11,04,08,06,14.00
2012,11,04,08,07,14.00
2012,11,04,08,08,14.00
2012,11,04,08,09,14.60
2012,11,04,08,10,16.80
2012,11,04,08,11,18.00
2012,11,04,08,12,18.00
2012,11,04,08,13,18.00
2012,11,04,08,14,18.00
2012,11,04,08,15,18.00
2012,11,04,08,16,18.00
2012,11,04,08,17,18.00
2012,11,04,08,18,18.00
2012,11,04,08,19,18.00
2012,11,04,08,20,18.00
2012,11,04,08,21,18.00
2012,11,04,08,22,18.00
2012,11,04,08,23,18.90
2012,11,04,08,24,19.10
2012,11,04,08,25,21.00
2012,11,04,08,26,21.00
2012,11,04,08,27,21.80
2012,11,04,08,28,24.40
2012,11,04,08,29,26.00
2012,11,04,08,30,25.30
2012,11,04,08,31,23.40
2012,11,04,08,32,21.20
2012,11,04,08,33,20.80
2012,11,04,08,34,19.50
2012,11,04,08,35,21.00
2012,11,04,08,36,21.00
2012,11,04,08,37,21.00
2012,11,04,08,38,21.00
2012,11,04,08,39,21.00
2012,11,04,08,40,22.60
2012,11,04,08,41,24.90
2012,11,04,08,42,25.10
2012,11,04,08,43,26.50
2012,11,04,08,44,28.00
2012,11,04,08,45,28.00
2012,11,04,08,46,28.00
2012,11,04,08,47,29.30
2012,11,04,08,48,32.30
2012,11,04,08,49,36.50
2012,11,04,08,50,37.00
2012,11,04,08,51,38.30
2012,11,04,08,52,44.00
2012,11,04,08,53,42.00
2012,11,04,08,54,39.50
2012,11,04,08,55,43.70
2012,11,04,08,56,48.00
2012,11,04,08,57,53.00
2012,11,04,08,58,55.60
2012,11,04,08,59,50.00
2012,11,04,09,00,44.00
2012,11,04,09,01,44.00
2012,11,04,09,02,46.20
2012,11,04,09,03,47.90
2012,11,04,09,04,45.10
2012,11,04,09,05,44.00
2012,11,04,09,06,44.00
2012,11,04,09,07,47.20
2012,11,04,09,08,51.50
2012,11,04,09,09,53.70
2012,11,04,09,10,49.00
2012,11,04,09,11,41.00
2012,11,04,09,12,43.50
2012,11,04,09,13,44.60
2012,11,04,09,14,40.90
2012,11,04,09,15,41.80
2012,11,04,09,16,43.80
2012,11,04,09,17,42.00
2012,11,04,09,18,42.00
2012,11,04,09,19,42.80
2012,11,04,09,20,45.00
2012,11,04,09,21,46.00
2012,11,04,09,22,46.00
2012,11,04,09,23,46.00
2012,11,04,09,24,47.10
2012,11,04,09,25,51.40
2012,11,04,09,26,52.60
2012,11,04,09,27,48.20
2012,11,04,09,28,48.80
2012,11,04,09,29,52.70
2012,11,04,09,30,54.00
2012,11,04,09,31,54.00
2012,11,04,09,32,54.00
2012,11,04,09,33,53.00
2012,11,04,09,34,53.50
2012,11,04,09,35,56.50
2012,11,04,09,36,60.70
2012,11,04,09,37,70.20
2012,11,04,09,38,80.10
2012,11,04,09,39,83.00
2012,11,04,09,40,72.50
2012,11,04,09,41,67.30
2012,11,04,09,42,66.70
2012,11,04,09,43,65.90
2012,11,04,09,44,67.00
2012,11,04,09,45,61.60
2012,11,04,09,46,61.10
2012,11,04,09,47,70.90
2012,11,04,09,48,86.20
2012,11,04,09,49,96.90
2012,11,04,09,50,106.90
2012,11,04,09,51,114.40
2012,11,04,09,52,132.40
2012,11,04,09,53,162.00
2012,11,04,09,54,153.70
2012,11,04,09,55,160.00
2012,11,04,09,56,158.70
2012,11,04,09,57,166.60
2012,11,04,09,58,175.30
2012,11,04,09,59,204.20
2012,11,04,10,00,174.60
2012,11,04,10,01,158.70
2012,11,04,10,02,155.60
2012,11,04,10,03,146.70
2012,11,04,10,04,131.40
2012,11,04,10,05,121.90
2012,11,04,10,06,125.70
2012,11,04,10,07,151.70
2012,11,04,10,08,177.20
2012,11,04,10,09,189.30
2012,11,04,10,10,209.90
2012,11,04,10,11,210.10
2012,11,04,10,12,177.80
2012,11,04,10,13,160.90
2012,11,04,10,14,143.80
2012,11,04,10,15,126.30
2012,11,04,10,16,135.70
2012,11,04,10,17,153.40
2012,11,04,10,18,156.70
2012,11,04,10,19,165.70
2012,11,04,10,20,161.00
2012,11,04,10,21,149.80
2012,11,04,10,22,156.70
2012,11,04,10,23,187.00
2012,11,04,10,24,255.70
2012,11,04,10,25,299.30
2012,11,04,10,26,306.50
2012,11,04,10,27,312.90
2012,11,04,10,28,263.90
2012,11,04,10,29,200.10
2012,11,04,10,30,173.50
2012,11,04,10,31,176.40
2012,11,04,10,32,183.90
2012,11,04,10,33,174.10
2012,11,04,10,34,165.00
2012,11,04,10,35,165.00
2012,11,04,10,36,165.00
2012,11,04,10,37,163.40
2012,11,04,10,38,162.00
2012,11,04,10,39,162.70
2012,11,04,10,40,162.20
2012,11,04,10,41,166.50
2012,11,04,10,42,165.80
2012,11,04,10,43,174.00
2012,11,04,10,44,179.20
2012,11,04,10,45,173.70
2012,11,04,10,46,159.50
2012,11,04,10,47,179.50
2012,11,04,10,48,166.80
2012,11,04,10,49,160.00
2012,11,04,10,50,234.50
2012,11,04,10,51,294.00
2012,11,04,10,52,298.80
2012,11,04,10,53,321.60
2012,11,04,10,54,332.20
2012,11,04,10,55,330.00
2012,11,04,10,56,246.40
2012,11,04,10,57,219.20
2012,11,04,10,58,238.30
2012,11,04,10,59,219.60
2012,11,04,11,00,253.00
2012,11,04,11,01,199.90
2012,11,04,11,02,195.80
2012,11,04,11,03,196.00
2012,11,04,11,04,205.90
2012,11,04,11,05,240.90
2012,11,04,11,06,262.50
2012,11,04,11,07,302.30
2012,11,04,11,08,341.30
2012,11,04,11,09,294.30
2012,11,04,11,10,278.30
2012,11,04,11,11,270.10
2012,11,04,11,12,288.40
2012,11,04,11,13,285.50
2012,11,04,11,14,268.10
2012,11,04,11,15,250.80
2012,11,04,11,16,246.90
2012,11,04,11,17,221.80
2012,11,04,11,18,217.40
2012,11,04,11,19,221.90
2012,11,04,11,20,213.00
2012,11,04,11,21,202.80
2012,11,04,11,22,193.60
2012,11,04,11,23,192.20
2012,11,04,11,24,196.50
2012,11,04,11,25,219.30
2012,11,04,11,26,211.70
2012,11,04,11,27,201.90
2012,11,04,11,28,209.80
2012,11,04,11,29,234.00
2012,11,04,11,30,249.40
2012,11,04,11,31,227.10
2012,11,04,11,32,214.00
2012,11,04,11,33,214.00
2012,11,04,11,34,208.80
2012,11,04,11,35,188.90
2012,11,04,11,36,255.10
2012,11,04,11,37,325.80
2012,11,04,11,38,364.30
2012,11,04,11,39,368.90
2012,11,04,11,40,309.90
2012,11,04,11,41,275.90
2012,11,04,11,42,261.20
2012,11,04,11,43,269.60
2012,11,04,11,44,259.40
2012,11,04,11,45,278.80
2012,11,04,11,46,287.50
2012,11,04,11,47,285.00
2012,11,04,11,48,285.00
2012,11,04,11,49,285.00
2012,11,04,11,50,340.50
2012,11,04,11,51,387.50
2012,11,04,11,52,664.00
2012,11,04,11,53,575.00
2012,11,04,11,54,377.40
2012,11,04,11,55,352.00
2012,11,04,11,56,282.60
2012,11,04,11,57,291.00
2012,11,04,11,58,274.60
2012,11,04,11,59,290.60
2012,11,04,12,00,318.30
2012,11,04,12,01,268.70
2012,11,04,12,02,256.40
2012,11,04,12,03,286.00
2012,11,04,12,04,319.80
2012,11,04,12,05,358.60
2012,11,04,12,06,383.40
2012,11,04,12,07,387.00
2012,11,04,12,08,320.80
2012,11,04,12,09,296.40
2012,11,04,12,10,225.50
2012,11,04,12,11,170.40
2012,11,04,12,12,147.00
2012,11,04,12,13,131.60
2012,11,04,12,14,129.40
2012,11,04,12,15,130.00
2012,11,04,12,16,131.80
2012,11,04,12,17,131.70
2012,11,04,12,18,130.00
2012,11,04,12,19,130.60
2012,11,04,12,20,132.00
2012,11,04,12,21,133.10
2012,11,04,12,22,134.00
2012,11,04,12,23,137.90
2012,11,04,12,24,141.60
2012,11,04,12,25,156.10
2012,11,04,12,26,176.30
2012,11,04,12,27,205.20
2012,11,04,12,28,242.10
2012,11,04,12,29,286.00
2012,11,04,12,30,300.70
2012,11,04,12,31,299.70
2012,11,04,12,32,294.00
2012,11,04,12,33,272.90
2012,11,04,12,34,260.40
2012,11,04,12,35,264.20
2012,11,04,12,36,264.70
2012,11,04,12,37,268.10
2012,11,04,12,38,278.70
2012,11,04,12,39,278.70
2012,11,04,12,40,256.00
2012,11,04,12,41,210.00
2012,11,04,12,42,185.90
2012,11,04,12,43,176.90
2012,11,04,12,44,215.20
2012,11,04,12,45,266.00
2012,11,04,12,46,289.50
2012,11,04,12,47,310.30
2012,11,04,12,48,296.30
2012,11,04,12,49,262.50
2012,11,04,12,50,206.70
2012,11,04,12,51,162.10
2012,11,04,12,52,152.60
2012,11,04,12,53,151.50
2012,11,04,12,54,161.60
2012,11,04,12,55,203.10
2012,11,04,12,56,227.00
2012,11,04,12,57,222.40
2012,11,04,12,58,211.20
2012,11,04,12,59,212.60
2012,11,04,13,00,180.00
2012,11,04,13,01,193.90
2012,11,04,13,02,201.50
2012,11,04,13,03,196.70
2012,11,04,13,04,174.30
2012,11,04,13,05,176.10
2012,11,04,13,06,190.80
2012,11,04,13,07,210.50
2012,11,04,13,08,241.70
2012,11,04,13,09,282.40
2012,11,04,13,10,303.00
2012,11,04,13,11,341.10
2012,11,04,13,12,267.20
2012,11,04,13,13,221.30
2012,11,04,13,14,217.40
2012,11,04,13,15,220.30
2012,11,04,13,16,232.80
2012,11,04,13,17,226.50
2012,11,04,13,18,220.30
2012,11,04,13,19,216.70
2012,11,04,13,20,214.00
2012,11,04,13,21,214.00
2012,11,04,13,22,201.90
2012,11,04,13,23,190.00
2012,11,04,13,24,182.30
2012,11,04,13,25,172.70
2012,11,04,13,26,169.00
2012,11,04,13,27,179.20
2012,11,04,13,28,204.50
2012,11,04,13,29,193.50
2012,11,04,13,30,249.10
2012,11,04,13,31,232.60
2012,11,04,13,32,191.20
2012,11,04,13,33,183.70
2012,11,04,13,34,197.10
2012,11,04,13,35,188.90
2012,11,04,13,36,203.90
2012,11,04,13,37,211.70
2012,11,04,13,38,217.00
2012,11,04,13,39,224.50
2012,11,04,13,40,234.60
2012,11,04,13,41,218.40
2012,11,04,13,42,230.30
2012,11,04,13,43,234.20
2012,11,04,13,44,200.00
2012,11,04,13,45,186.70
2012,11,04,13,46,165.40
2012,11,04,13,47,146.30
2012,11,04,13,48,127.50
2012,11,04,13,49,110.70
2012,11,04,13,50,105.30
2012,11,04,13,51,111.20
2012,11,04,13,52,121.70
2012,11,04,13,53,123.60
2012,11,04,13,54,114.10
2012,11,04,13,55,96.50
2012,11,04,13,56,78.90
2012,11,04,13,57,65.90
2012,11,04,13,58,62.20
2012,11,04,13,59,58.40
2012,11,04,14,00,50.00
2012,11,04,14,01,38.50
2012,11,04,14,02,33.00
2012,11,04,14,03,34.60
2012,11,04,14,04,38.00
2012,11,04,14,05,40.90
2012,11,04,14,06,46.90
2012,11,04,14,07,54.80
2012,11,04,14,08,62.90
2012,11,04,14,09,67.40
2012,11,04,14,10,71.80
2012,11,04,14,11,78.50
2012,11,04,14,12,82.40
2012,11,04,14,13,87.40
2012,11,04,14,14,92.00
2012,11,04,14,15,93.00
2012,11,04,14,16,93.00
2012,11,04,14,17,101.00
2012,11,04,14,18,119.10
2012,11,04,14,19,157.10
2012,11,04,14,20,179.70
2012,11,04,14,21,139.50
2012,11,04,14,22,116.10
2012,11,04,14,23,111.00
2012,11,04,14,24,92.40
2012,11,04,14,25,90.70
2012,11,04,14,26,83.90
2012,11,04,14,27,69.30
2012,11,04,14,28,70.20
2012,11,04,14,29,78.70
2012,11,04,14,30,77.00
2012,11,04,14,31,71.50
2012,11,04,14,32,64.80
2012,11,04,14,33,58.70
2012,11,04,14,34,54.30
2012,11,04,14,35,55.70
2012,11,04,14,36,54.50
2012,11,04,14,37,58.70
2012,11,04,14,38,66.20
2012,11,04,14,39,69.50
2012,11,04,14,40,60.30
2012,11,04,14,41,50.50
2012,11,04,14,42,47.20
2012,11,04,14,43,46.30
2012,11,04,14,44,49.40
2012,11,04,14,45,50.40
2012,11,04,14,46,47.80
2012,11,04,14,47,43.90
2012,11,04,14,48,40.70
2012,11,04,14,49,37.80
2012,11,04,14,50,33.70
2012,11,04,14,51,35.00
2012,11,04,14,52,39.40
2012,11,04,14,53,42.50
2012,11,04,14,54,43.30
2012,11,04,14,55,42.00
2012,11,04,14,56,41.00
2012,11,04,14,57,39.30
2012,11,04,14,58,37.50
2012,11,04,14,59,35.20
2012,11,04,15,00,35.00
2012,11,04,15,01,34.10
2012,11,04,15,02,28.90
2012,11,04,15,03,26.00
2012,11,04,15,04,27.00
2012,11,04,15,05,30.40
2012,11,04,15,06,30.60
2012,11,04,15,07,30.00
2012,11,04,15,08,30.00
2012,11,04,15,09,29.80
2012,11,04,15,10,27.60
2012,11,04,15,11,26.60
2012,11,04,15,12,28.00
2012,11,04,15,13,28.00
2012,11,04,15,14,26.10
2012,11,04,15,15,23.50
2012,11,04,15,16,24.70
2012,11,04,15,17,25.00
2012,11,04,15,18,25.00
2012,11,04,15,19,25.00
2012,11,04,15,20,25.40
2012,11,04,15,21,26.00
2012,11,04,15,22,26.00
2012,11,04,15,23,26.00
2012,11,04,15,24,26.00
2012,11,04,15,25,25.10
2012,11,04,15,26,23.20
2012,11,04,15,27,25.20
2012,11,04,15,28,26.00
2012,11,04,15,29,26.00
2012,11,04,15,30,25.50
2012,11,04,15,31,23.80
2012,11,04,15,32,21.60
2012,11,04,15,33,18.50
2012,11,04,15,34,16.10
2012,11,04,15,35,16.00
2012,11,04,15,36,15.50
2012,11,04,15,37,14.00
2012,11,04,15,38,14.00
2012,11,04,15,39,14.00
2012,11,04,15,40,15.30
2012,11,04,15,41,16.00
2012,11,04,15,42,14.30
2012,11,04,15,43,11.90
2012,11,04,15,44,11.00
2012,11,04,15,45,11.00
2012,11,04,15,46,11.00
2012,11,04,15,47,11.00
2012,11,04,15,48,11.00
2012,11,04,15,49,11.00
2012,11,04,15,50,11.00
2012,11,04,15,51,11.00
2012,11,04,15,52,7.00
2012,11,04,15,53,7.00
2012,11,04,15,54,7.00
2012,11,04,15,55,7.00
2012,11,04,15,56,7.00
2012,11,04,15,57,7.00
2012,11,04,15,58,5.50
2012,11,04,15,59,5.00
2012,11,04,16,00,6.80
2012,11,04,16,01,5.00
2012,11,04,16,02,3.70
2012,11,04,16,03,0.00
2012,11,04,16,04,2.30
2012,11,04,16,05,5.00
2012,11,04,16,06,6.40
2012,11,04,16,07,7.00
2012,11,04,16,08,5.30
2012,11,04,16,09,5.00
2012,11,04,16,10,5.40
2012,11,04,16,11,7.00
2012,11,04,16,12,7.00
2012,11,04,16,13,7.00
2012,11,04,16,14,7.00
2012,11,04,16,15,8.50
2012,11,04,16,16,10.60
2012,11,04,16,17,11.00
2012,11,04,16,18,11.10
2012,11,04,16,19,12.00
2012,11,04,16,20,11.70
2012,11,04,16,21,11.00
2012,11,04,16,22,10.00
2012,11,04,16,23,9.00
2012,11,04,16,24,9.00
2012,11,04,16,25,7.20
2012,11,04,16,26,5.10
2012,11,04,16,27,5.00
2012,11,04,16,28,3.60
2012,11,04,16,29,0.00
2012,11,04,16,30,0.00
2012,11,04,16,31,0.00
2012,11,04,16,32,0.00
2012,11,04,16,33,0.00
2012,11,04,16,34,0.00
2012,11,04,16,35,0.00
2012,11,04,16,36,0.00
2012,11,04,16,37,0.00
2012,11,04,16,38,0.00
2012,11,04,16,39,0.00
2012,11,04,16,40,0.00
2012,11,04,16,41,0.00
2012,11,04,16,42,0.00
2012,11,04,16,43,0.00
2012,11,04,16,44,0.00
2012,11,04,16,45,0.00
2012,11,04,16,46,0.00
2012,11,04,16,47,0.00
2012,11,04,16,48,0.00
2012,11,04,16,49,0.00
2012,11,04,16,50,0.00
2012,11,04,16,51,0.00
2012,11,04,16,52,0.00
2012,11,04,16,53,0.00
2012,11,04,16,54,0.00
2012,11,04,16,55,0.00
2012,11,04,16,56,0.00
2012,11,04,16,57,0.00
2012,11,04,16,58,0.00
2012,11,04,16,59,0.00
2012,11,04,17,00,0.00
2012,11,04,17,01,0.00
2012,11,04,17,02,0.00
2012,11,04,17,03,0.00
2012,11,04,17,04,0.00
2012,11,04,17,05,0.00
2012,11,04,17,06,0.00
2012,11,04,17,07,0.00
2012,11,04,17,08,0.00
2012,11,04,17,09,0.00
2012,11,04,17,10,0.00
2012,11,04,17,11,0.00
2012,11,04,17,12,0.00
2012,11,04,17,13,0.00
2012,11,04,17,14,0.00
2012,11,04,17,15,0.00
2012,11,04,17,16,0.00
2012,11,04,17,17,0.00
2012,11,04,17,18,0.00
2012,11,04,17,19,0.00
2012,11,04,17,20,0.00
2012,11,04,17,21,0.00
2012,11,04,17,22,0.00
2012,11,04,17,23,0.00
2012,11,04,17,24,0.00
2012,11,04,17,25,0.00
2012,11,04,17,26,0.00
2012,11,04,17,27,0.00
2012,11,04,17,28,0.00
2012,11,04,17,29,0.00
2012,11,04,17,30,0.00
2012,11,04,17,31,0.00
2012,11,04,17,32,0.00
2012,11,04,17,33,0.00
2012,11,04,17,34,0.00
2012,11,04,17,35,0.00
2012,11,04,17,36,0.00
2012,11,04,17,37,0.00
2012,11,04,17,38,0.00
2012,11,04,17,39,0.00
2012,11,04,17,40,0.00
2012,11,04,17,41,0.00